| time (UTC) | temp F | wind direction | speed knots | gust knots | rain 1hr in | rain 24hr in | rain mn in | humidity % | barometer mb |
| 20260506202012 | 45 | 74 | 1.7 | 3.5 | 0.00 | 0.00 | 0.00 | 96 | 1005.8 |
| 20260506201507 | 45 | 74 | 2.6 | 4.3 | 0.00 | 0.00 | 0.00 | 96 | 1005.8 |
| 20260506201008 | 45 | 51 | 5.2 | 7.8 | 0.00 | 0.00 | 0.00 | 96 | 1005.1 |
| 20260506200508 | 45 | 83 | 4.3 | 5.2 | 0.00 | 0.00 | 0.00 | 96 | 1005.8 |
| 20260506200008 | 45 | 208 | 2.6 | 5.2 | 0.00 | 0.00 | 0.00 | 96 | 1005.8 |
| 20260506195508 | 46 | 35 | 5.2 | 8.7 | 0.00 | 0.00 | 0.00 | 96 | 1005.8 |
| 20260506195006 | 46 | 165 | 3.5 | 4.3 | 0.00 | 0.00 | 0.00 | 96 | 1005.8 |
| 20260506194507 | 46 | 58 | 4.3 | 7.0 | 0.00 | 0.00 | 0.00 | 96 | 1005.8 |
| 20260506194007 | 46 | 226 | 0.9 | 3.5 | 0.00 | 0.00 | 0.00 | 96 | 1005.8 |
| 20260506193508 | 45 | 46 | 6.1 | 6.1 | 0.00 | 0.00 | 0.00 | 96 | 1005.4 |
| 20260506193008 | 45 | 75 | 4.3 | 5.2 | 0.00 | 0.00 | 0.00 | 96 | 1005.4 |
| 20260506192508 | 45 | 49 | 5.2 | 7.0 | 0.00 | 0.00 | 0.00 | 95 | 1005.8 |
| 20260506192006 | 46 | 69 | 2.6 | 5.2 | 0.00 | 0.00 | 0.00 | 95 | 1005.8 |
| 20260506191508 | 46 | 82 | 3.5 | 5.2 | 0.00 | 0.00 | 0.00 | 95 | 1005.8 |
| 20260506191007 | 46 | 281 | 3.5 | 4.3 | 0.00 | 0.00 | 0.00 | 95 | 1005.8 |
| 20260506190508 | 48 | 76 | 3.5 | 6.1 | 0.00 | 0.00 | 0.00 | 96 | 1005.4 |
| 20260506190007 | 48 | 226 | 0.0 | 3.5 | 0.00 | 0.00 | 0.00 | 96 | 1005.8 |
| 20260506185506 | 48 | 44 | 4.3 | 5.2 | 0.00 | 0.00 | 0.00 | 96 | 1005.4 |
| 20260506185008 | 48 | 50 | 3.5 | 5.2 | 0.00 | 0.00 | 0.00 | 94 | 1005.4 |
| 20260506184508 | 51 | 100 | 4.3 | 7.0 | 0.00 | 0.00 | 0.00 | 93 | 1005.4 |
| 20260506184008 | 54 | 45 | 5.2 | 7.0 | 0.00 | 0.00 | 0.00 | 92 | 1005.1 |
| 20260506183507 | 59 | 45 | 5.2 | 6.1 | 0.00 | 0.00 | 0.00 | 95 | 1005.1 |
| 20260506183008 | 59 | 89 | 4.3 | 4.3 | 0.00 | 0.00 | 0.00 | 95 | 1005.1 |
| 20260506182505 | 59 | 314 | 1.7 | 3.5 | 0.00 | 0.00 | 0.00 | 95 | 1005.1 |
| 20260506182007 | 59 | 215 | 4.3 | 4.3 | 0.00 | 0.00 | 0.00 | 95 | 1005.1 |
| 20260506181508 | 59 | 204 | 1.7 | 4.3 | 0.00 | 0.00 | 0.00 | 94 | 1005.1 |
| 20260506181016 | 59 | 202 | 2.6 | 5.2 | 0.00 | 0.00 | 0.00 | 94 | 1005.1 |
| 20260506180508 | 59 | 246 | 0.9 | 5.2 | 0.00 | 0.00 | 0.00 | 94 | 1005.1 |
| 20260506180007 | 59 | 192 | 5.2 | 7.8 | 0.00 | 0.00 | 0.00 | 94 | 1005.1 |
| 20260506175507 | 59 | 172 | 5.2 | 5.2 | 0.00 | 0.00 | 0.00 | 94 | 1005.1 |
| 20260506175006 | 59 | 180 | 7.0 | 7.0 | 0.00 | 0.00 | 0.00 | 94 | 1005.1 |
| 20260506174508 | 59 | 168 | 3.5 | 5.2 | 0.00 | 0.00 | 0.00 | 94 | 1005.1 |
| 20260506174007 | 59 | 180 | 3.5 | 6.1 | 0.00 | 0.00 | 0.00 | 94 | 1005.1 |
| 20260506173508 | 59 | 215 | 1.7 | 3.5 | 0.00 | 0.00 | 0.00 | 94 | 1005.4 |
| 20260506173008 | 59 | 214 | 1.7 | 4.3 | 0.00 | 0.00 | 0.00 | 95 | 1005.1 |
| 20260506172507 | 59 | 209 | 3.5 | 4.3 | 0.00 | 0.00 | 0.00 | 95 | 1005.4 |
| 20260506172007 | 59 | 295 | 0.9 | 2.6 | 0.00 | 0.00 | 0.00 | 94 | 1005.4 |
| 20260506171508 | 59 | 205 | 2.6 | 3.5 | 0.00 | 0.00 | 0.00 | 95 | 1005.4 |
| 20260506171008 | 59 | 200 | 2.6 | 2.6 | 0.00 | 0.00 | 0.00 | 94 | 1005.8 |
| 20260506170508 | 59 | 147 | 1.7 | 2.6 | 0.00 | 0.00 | 0.00 | 94 | 1005.8 |
| 20260506170009 | 58 | 246 | 2.6 | 3.5 | 0.00 | 0.00 | 0.00 | 95 | 1005.8 |
| 20260506165508 | 58 | 324 | 0.0 | 2.6 | 0.00 | 0.00 | 0.00 | 95 | 1006.1 |
| 20260506165009 | 58 | 309 | 1.7 | 3.5 | 0.00 | 0.00 | 0.00 | 95 | 1006.1 |
| 20260506164508 | 58 | 178 | 1.7 | 3.5 | 0.00 | 0.00 | 0.00 | 95 | 1006.1 |
| 20260506164009 | 58 | 226 | 1.7 | 4.3 | 0.00 | 0.00 | 0.00 | 95 | 1006.1 |
| 20260506163508 | 57 | 252 | 0.9 | 3.5 | 0.00 | 0.00 | 0.00 | 96 | 1006.1 |
| 20260506163008 | 57 | 261 | 0.9 | 2.6 | 0.00 | 0.00 | 0.00 | 96 | 1006.1 |
| 20260506162508 | 58 | 168 | 0.9 | 2.6 | 0.00 | 0.00 | 0.00 | 96 | 1006.1 |
| 20260506162008 | 58 | 315 | 1.7 | 2.6 | 0.00 | 0.00 | 0.00 | 96 | 1006.4 |
| 20260506161508 | 58 | 339 | 1.7 | 2.6 | 0.00 | 0.00 | 0.00 | 96 | 1006.1 |
| 20260506161006 | 57 | 50 | 0.0 | 1.7 | 0.00 | 0.00 | 0.00 | 96 | 1006.4 |
| 20260506160510 | 57 | 359 | 0.9 | 2.6 | 0.00 | 0.00 | 0.00 | 95 | 1006.1 |
| 20260506160007 | 57 | 323 | 0.0 | 2.6 | 0.00 | 0.00 | 0.00 | 95 | 1006.4 |
| 20260506155508 | 57 | 344 | 0.9 | 2.6 | 0.00 | 0.00 | 0.00 | 95 | 1006.8 |
| 20260506155008 | 57 | 344 | 0.0 | 2.6 | 0.00 | 0.00 | 0.00 | 96 | 1006.4 |
| 20260506154508 | 57 | 352 | 1.7 | 2.6 | 0.00 | 0.00 | 0.00 | 96 | 1006.4 |
| 20260506154008 | 57 | 332 | 1.7 | 3.5 | 0.00 | 0.00 | 0.00 | 95 | 1006.4 |
| 20260506153509 | 56 | 333 | 0.9 | 1.7 | 0.00 | 0.00 | 0.00 | 95 | 1006.8 |
| 20260506153008 | 56 | 81 | 2.6 | 2.6 | 0.00 | 0.00 | 0.00 | 95 | 1006.8 |
| 20260506152508 | 57 | 308 | 1.7 | 1.7 | 0.00 | 0.00 | 0.00 | 95 | 1006.8 |
| 20260506152007 | 57 | 85 | 0.0 | 2.6 | 0.00 | 0.00 | 0.00 | 95 | 1006.8 |
| 20260506151507 | 56 | 21 | 0.0 | 2.6 | 0.00 | 0.00 | 0.00 | 95 | 1007.1 |
| 20260506151008 | 57 | 294 | 0.9 | 1.7 | 0.00 | 0.00 | 0.00 | 95 | 1006.8 |
| 20260506150508 | 56 | 94 | 1.7 | 2.6 | 0.00 | 0.00 | 0.00 | 95 | 1007.1 |
| 20260506150007 | 56 | 122 | 0.9 | 2.6 | 0.00 | 0.00 | 0.00 | 95 | 1007.1 |
| 20260506145508 | 57 | 300 | 0.0 | 2.6 | 0.00 | 0.00 | 0.00 | 95 | 1007.5 |
| 20260506145007 | 56 | 23 | 1.7 | 2.6 | 0.00 | 0.00 | 0.00 | 94 | 1007.5 |
| 20260506144507 | 56 | 94 | 0.0 | 2.6 | 0.00 | 0.00 | 0.00 | 94 | 1007.5 |
| 20260506144007 | 56 | 159 | 0.9 | 3.5 | 0.00 | 0.00 | 0.00 | 94 | 1007.5 |
| 20260506143507 | 56 | 153 | 1.7 | 1.7 | 0.00 | 0.00 | 0.00 | 94 | 1007.8 |
| 20260506143008 | 56 | 155 | 2.6 | 2.6 | 0.00 | 0.00 | 0.00 | 94 | 1007.8 |
| 20260506142508 | 56 | 162 | 1.7 | 2.6 | 0.00 | 0.00 | 0.00 | 94 | 1007.8 |
| 20260506142008 | 56 | 128 | 0.0 | 2.6 | 0.00 | 0.00 | 0.00 | 94 | 1007.8 |
| 20260506141509 | 56 | 198 | 0.0 | 2.6 | 0.00 | 0.00 | 0.00 | 95 | 1007.5 |
| 20260506141007 | 56 | 133 | 0.0 | 2.6 | 0.00 | 0.00 | 0.00 | 96 | 1007.5 |
| 20260506140509 | 57 | 158 | 2.6 | 3.5 | 0.00 | 0.00 | 0.00 | 96 | 1007.5 |
| 20260506140008 | 56 | 231 | 0.9 | 1.7 | 0.00 | 0.00 | 0.00 | 96 | 1007.5 |
| 20260506135508 | 56 | 103 | 0.0 | 2.6 | 0.00 | 0.00 | 0.00 | 97 | 1007.5 |
| 20260506135008 | 56 | 153 | 0.0 | 2.6 | 0.00 | 0.00 | 0.00 | 97 | 1007.5 |
| 20260506134507 | 56 | 187 | 0.9 | 2.6 | 0.00 | 0.00 | 0.00 | 97 | 1007.5 |
| 20260506133542 | 56 | 311 | 0.0 | 1.7 | 0.00 | 0.00 | 0.00 | 97 | 1007.5 |
| 20260506133008 | 56 | 115 | 0.0 | 1.7 | 0.00 | 0.00 | 0.00 | 97 | 1007.5 |
| 20260506132507 | 56 | 22 | 0.9 | 3.5 | 0.00 | 0.00 | 0.00 | 97 | 1007.1 |
| 20260506132009 | 56 | 47 | 1.7 | 2.6 | 0.00 | 0.00 | 0.00 | 97 | 1007.1 |
| 20260506131508 | 56 | 56 | 1.7 | 2.6 | 0.00 | 0.00 | 0.00 | 97 | 1007.1 |
| 20260506131007 | 56 | 48 | 2.6 | 3.5 | 0.00 | 0.00 | 0.00 | 97 | 1007.5 |
| 20260506130507 | 56 | 29 | 0.9 | 2.6 | 0.00 | 0.00 | 0.00 | 97 | 1007.5 |
| 20260506130009 | 56 | 48 | 1.7 | 2.6 | 0.00 | 0.00 | 0.00 | 97 | 1007.5 |
| 20260506125507 | 56 | 39 | 1.7 | 2.6 | 0.00 | 0.00 | 0.00 | 97 | 1007.8 |
| 20260506125007 | 55 | 47 | 1.7 | 2.6 | 0.00 | 0.00 | 0.00 | 97 | 1007.8 |
| 20260506124508 | 55 | 67 | 1.7 | 2.6 | 0.00 | 0.00 | 0.00 | 97 | 1007.8 |
| 20260506124008 | 55 | 64 | 1.7 | 2.6 | 0.00 | 0.00 | 0.00 | 97 | 1008.1 |
| 20260506123506 | 55 | 51 | 2.6 | 2.6 | 0.00 | 0.00 | 0.00 | 97 | 1008.1 |
| 20260506123008 | 55 | 86 | 0.0 | 1.7 | 0.00 | 0.00 | 0.00 | 97 | 1008.1 |
| 20260506122508 | 55 | 39 | 0.9 | 1.7 | 0.00 | 0.00 | 0.00 | 96 | 1008.1 |
| 20260506122007 | 55 | 73 | 1.7 | 2.6 | 0.00 | 0.00 | 0.00 | 96 | 1008.1 |
| 20260506121508 | 55 | 31 | 0.9 | 2.6 | 0.00 | 0.00 | 0.00 | 96 | 1007.8 |
| 20260506121007 | 55 | 49 | 1.7 | 1.7 | 0.00 | 0.00 | 0.00 | 96 | 1007.5 |
| 20260506120507 | 55 | 46 | 1.7 | 3.5 | 0.00 | 0.00 | 0.00 | 96 | 1007.8 |
| 20260506120007 | 55 | 93 | 0.0 | 2.6 | 0.00 | 0.00 | 0.00 | 96 | 1007.5 |
| 20260506115507 | 54 | 8 | 1.7 | 1.7 | 0.00 | 0.00 | 0.00 | 96 | 1007.5 |
| 20260506115009 | 54 | 51 | 2.6 | 3.5 | 0.00 | 0.00 | 0.00 | 96 | 1007.1 |
| 20260506114508 | 54 | 54 | 2.6 | 3.5 | 0.00 | 0.00 | 0.00 | 96 | 1007.1 |
| 20260506114008 | 54 | 51 | 3.5 | 3.5 | 0.00 | 0.00 | 0.00 | 96 | 1007.1 |
| 20260506113507 | 54 | 41 | 2.6 | 3.5 | 0.00 | 0.00 | 0.00 | 96 | 1007.5 |
| 20260506113006 | 53 | 52 | 3.5 | 3.5 | 0.00 | 0.00 | 0.00 | 96 | 1007.5 |
| 20260506112508 | 53 | 69 | 2.6 | 3.5 | 0.00 | 0.00 | 0.00 | 96 | 1007.5 |
| 20260506112007 | 54 | 57 | 2.6 | 2.6 | 0.00 | 0.00 | 0.00 | 96 | 1007.5 |
| 20260506111507 | 54 | 50 | 0.9 | 2.6 | 0.00 | 0.00 | 0.00 | 96 | 1007.8 |
| 20260506111007 | 53 | 38 | 1.7 | 3.5 | 0.00 | 0.00 | 0.00 | 96 | 1007.5 |
| 20260506110508 | 53 | 30 | 4.3 | 5.2 | 0.00 | 0.00 | 0.00 | 96 | 1007.5 |
| 20260506110008 | 53 | 75 | 1.7 | 2.6 | 0.00 | 0.00 | 0.00 | 96 | 1007.5 |
| 20260506105508 | 53 | 42 | 1.7 | 2.6 | 0.00 | 0.00 | 0.00 | 96 | 1007.5 |
| 20260506105007 | 53 | 74 | 0.9 | 1.7 | 0.00 | 0.00 | 0.00 | 96 | 1007.5 |
| 20260506104508 | 53 | 46 | 3.5 | 3.5 | 0.00 | 0.00 | 0.00 | 96 | 1007.1 |
| 20260506104005 | 53 | 300 | 0.9 | 2.6 | 0.00 | 0.00 | 0.00 | 96 | 1007.5 |
| 20260506103507 | 53 | 38 | 0.9 | 2.6 | 0.00 | 0.00 | 0.00 | 96 | 1007.1 |
| 20260506103008 | 53 | 21 | 0.0 | 2.6 | 0.00 | 0.00 | 0.00 | 96 | 1007.1 |
| 20260506102507 | 53 | 58 | 1.7 | 3.5 | 0.00 | 0.00 | 0.00 | 96 | 1006.8 |
| 20260506102007 | 53 | 4 | 1.7 | 1.7 | 0.00 | 0.00 | 0.00 | 96 | 1007.1 |
| 20260506101507 | 53 | 68 | 2.6 | 3.5 | 0.00 | 0.00 | 0.00 | 96 | 1007.1 |
| 20260506101007 | 53 | 47 | 2.6 | 4.3 | 0.00 | 0.00 | 0.00 | 96 | 1006.8 |
| 20260506100507 | 53 | 39 | 1.7 | 4.3 | 0.00 | 0.00 | 0.00 | 96 | 1007.1 |
| 20260506100008 | 53 | 41 | 3.5 | 3.5 | 0.00 | 0.00 | 0.00 | 96 | 1007.1 |
| 20260506095508 | 54 | 95 | 1.7 | 2.6 | 0.00 | 0.00 | 0.00 | 95 | 1007.1 |
| 20260506095008 | 53 | 351 | 0.9 | 2.6 | 0.00 | 0.00 | 0.00 | 96 | 1007.1 |
| 20260506094509 | 53 | 67 | 2.6 | 3.5 | 0.00 | 0.00 | 0.00 | 95 | 1006.8 |
| 20260506094010 | 53 | 76 | 2.6 | 2.6 | 0.00 | 0.00 | 0.00 | 95 | 1006.8 |
| 20260506093508 | 53 | 28 | 3.5 | 5.2 | 0.00 | 0.00 | 0.00 | 96 | 1006.8 |
| 20260506093007 | 53 | 69 | 0.9 | 3.5 | 0.00 | 0.00 | 0.00 | 96 | 1007.1 |
| 20260506092507 | 54 | 72 | 1.7 | 3.5 | 0.00 | 0.00 | 0.00 | 95 | 1007.1 |
| 20260506092007 | 54 | 73 | 0.9 | 3.5 | 0.00 | 0.00 | 0.00 | 95 | 1007.1 |
| 20260506091507 | 53 | 34 | 2.6 | 3.5 | 0.00 | 0.00 | 0.00 | 95 | 1007.1 |
| 20260506091007 | 53 | 53 | 1.7 | 4.3 | 0.00 | 0.00 | 0.00 | 95 | 1006.8 |
| 20260506090507 | 53 | 22 | 1.7 | 2.6 | 0.00 | 0.00 | 0.00 | 96 | 1007.1 |
| 20260506090006 | 54 | 44 | 1.7 | 1.7 | 0.00 | 0.00 | 0.00 | 96 | 1007.5 |
| 20260506085507 | 54 | 68 | 2.6 | 2.6 | 0.00 | 0.00 | 0.00 | 95 | 1007.1 |
| 20260506085006 | 54 | 35 | 2.6 | 3.5 | 0.00 | 0.00 | 0.00 | 95 | 1007.1 |
| 20260506084508 | 54 | 52 | 2.6 | 3.5 | 0.00 | 0.00 | 0.00 | 95 | 1007.1 |
| 20260506084008 | 54 | 49 | 2.6 | 3.5 | 0.00 | 0.00 | 0.00 | 95 | 1007.5 |
| 20260506083507 | 54 | 32 | 1.7 | 2.6 | 0.00 | 0.00 | 0.00 | 95 | 1007.5 |
| 20260506083005 | 54 | 65 | 2.6 | 2.6 | 0.00 | 0.00 | 0.00 | 95 | 1007.5 |
| 20260506082507 | 54 | 33 | 1.7 | 2.6 | 0.00 | 0.00 | 0.00 | 95 | 1007.5 |
| 20260506082008 | 55 | 68 | 2.6 | 3.5 | 0.00 | 0.00 | 0.00 | 95 | 1007.1 |
| 20260506081508 | 55 | 46 | 1.7 | 2.6 | 0.00 | 0.00 | 0.00 | 95 | 1007.8 |
| 20260506081007 | 55 | 43 | 2.6 | 3.5 | 0.00 | 0.00 | 0.00 | 95 | 1007.5 |
| 20260506080508 | 55 | 36 | 1.7 | 2.6 | 0.00 | 0.00 | 0.00 | 95 | 1007.8 |
| 20260506073508 | 55 | 53 | 3.5 | 3.5 | 0.00 | 0.00 | 0.00 | 94 | 1007.8 |
| 20260506073008 | 55 | 31 | 2.6 | 2.6 | 0.00 | 0.00 | 0.00 | 94 | 1007.8 |
| 20260506072507 | 55 | 40 | 2.6 | 2.6 | 0.00 | 0.00 | 0.00 | 94 | 1007.5 |
| 20260506072008 | 55 | 57 | 1.7 | 3.5 | 0.00 | 0.00 | 0.00 | 94 | 1007.8 |
| 20260506071507 | 56 | 68 | 1.7 | 2.6 | 0.00 | 0.00 | 0.00 | 94 | 1007.5 |
| 20260506071006 | 56 | 54 | 1.7 | 2.6 | 0.00 | 0.00 | 0.00 | 94 | 1007.5 |
| 20260506070507 | 56 | 86 | 1.7 | 2.6 | 0.00 | 0.00 | 0.00 | 94 | 1007.5 |
| 20260506062508 | 57 | 43 | 1.7 | 2.6 | 0.00 | 0.00 | 0.00 | 93 | 1007.8 |
| 20260506062006 | 57 | 354 | 0.9 | 2.6 | 0.00 | 0.00 | 0.00 | 93 | 1007.8 |
| 20260506061507 | 57 | 8 | 1.7 | 2.6 | 0.00 | 0.00 | 0.00 | 93 | 1007.8 |
| 20260506061012 | 57 | 52 | 1.7 | 4.3 | 0.00 | 0.00 | 0.00 | 93 | 1007.8 |
| 20260506060508 | 57 | 29 | 3.5 | 4.3 | 0.00 | 0.00 | 0.00 | 93 | 1007.5 |
| 20260506051009 | 59 | 45 | 4.3 | 4.3 | 0.00 | 0.00 | 0.00 | 90 | 1008.1 |
| 20260506050507 | 59 | 52 | 2.6 | 3.5 | 0.00 | 0.00 | 0.00 | 89 | 1008.1 |
| 20260506045006 | 59 | 48 | 0.9 | 2.6 | 0.00 | 0.00 | 0.00 | 87 | 1008.8 |
| 20260506044505 | 59 | 7 | 0.9 | 3.5 | 0.00 | 0.00 | 0.00 | 86 | 1008.1 |
| 20260506044007 | 60 | 6 | 2.6 | 5.2 | 0.00 | 0.00 | 0.00 | 85 | 1008.1 |
| 20260506043507 | 60 | 69 | 3.5 | 4.3 | 0.00 | 0.00 | 0.00 | 82 | 1008.1 |
| 20260506043008 | 60 | 328 | 1.7 | 3.5 | 0.00 | 0.00 | 0.00 | 82 | 1008.1 |
| 20260506042505 | 60 | 27 | 1.7 | 3.5 | 0.00 | 0.00 | 0.00 | 82 | 1007.5 |
| 20260506042008 | 60 | 70 | 1.7 | 2.6 | 0.00 | 0.00 | 0.00 | 81 | 1007.8 |
| 20260506041513 | 60 | 24 | 1.7 | 1.7 | 0.00 | 0.00 | 0.00 | 82 | 1008.1 |
| 20260506041006 | 60 | 46 | 2.6 | 3.5 | 0.00 | 0.00 | 0.00 | 81 | 1008.1 |
| 20260506040506 | 61 | 61 | 1.7 | 2.6 | 0.00 | 0.00 | 0.00 | 79 | 1008.1 |
| 20260506040007 | 60 | 35 | 0.9 | 1.7 | 0.00 | 0.00 | 0.00 | 80 | 1007.8 |
| 20260506035505 | 60 | 354 | 0.0 | 1.7 | 0.00 | 0.00 | 0.00 | 81 | 1008.1 |
| 20260506035006 | 60 | 168 | 0.0 | 1.7 | 0.00 | 0.00 | 0.00 | 82 | 1008.1 |
| 20260506034506 | 60 | 32 | 0.9 | 2.6 | 0.00 | 0.00 | 0.00 | 84 | 1007.8 |
| 20260506034006 | 60 | 9 | 0.9 | 0.9 | 0.00 | 0.00 | 0.00 | 83 | 1007.8 |
| 20260506033507 | 61 | 37 | 0.0 | 0.9 | 0.00 | 0.00 | 0.00 | 80 | 1007.8 |
| 20260506033007 | 62 | 337 | 0.9 | 1.7 | 0.00 | 0.00 | 0.00 | 77 | 1007.5 |
| 20260506032507 | 62 | 317 | 0.9 | 1.7 | 0.00 | 0.00 | 0.00 | 76 | 1007.1 |
| 20260506032006 | 62 | 180 | 0.0 | 0.9 | 0.00 | 0.00 | 0.00 | 74 | 1007.5 |
| 20260506031507 | 62 | 308 | 1.7 | 2.6 | 0.00 | 0.00 | 0.00 | 73 | 1007.5 |
| 20260506031007 | 62 | 296 | 1.7 | 2.6 | 0.00 | 0.00 | 0.00 | 73 | 1007.5 |
| 20260506030508 | 63 | 184 | 0.0 | 2.6 | 0.00 | 0.00 | 0.00 | 73 | 1007.5 |
| 20260506030008 | 63 | 275 | 1.7 | 2.6 | 0.00 | 0.00 | 0.00 | 71 | 1007.5 |
| 20260506025507 | 63 | 298 | 1.7 | 2.6 | 0.00 | 0.00 | 0.00 | 72 | 1007.5 |
| 20260506025006 | 62 | 214 | 2.6 | 2.6 | 0.00 | 0.00 | 0.00 | 74 | 1007.5 |
| 20260506024506 | 62 | 156 | 0.9 | 2.6 | 0.00 | 0.00 | 0.00 | 73 | 1007.5 |
| 20260506024005 | 62 | 272 | 1.7 | 2.6 | 0.00 | 0.00 | 0.00 | 75 | 1007.5 |
| 20260506023506 | 63 | 186 | 0.0 | 1.7 | 0.00 | 0.00 | 0.00 | 71 | 1007.5 |
| 20260506023008 | 63 | 293 | 0.9 | 2.6 | 0.00 | 0.00 | 0.00 | 71 | 1007.5 |
| 20260506022508 | 64 | 191 | 0.9 | 1.7 | 0.00 | 0.00 | 0.00 | 69 | 1007.5 |
| 20260506022007 | 64 | 319 | 2.6 | 2.6 | 0.00 | 0.00 | 0.00 | 69 | 1007.1 |
| 20260506021507 | 63 | 250 | 0.9 | 3.5 | 0.00 | 0.00 | 0.00 | 70 | 1007.1 |
| 20260506021007 | 63 | 206 | 1.7 | 2.6 | 0.00 | 0.00 | 0.00 | 71 | 1007.1 |
| 20260506020508 | 64 | 146 | 0.0 | 1.7 | 0.00 | 0.00 | 0.00 | 69 | 1007.1 |
| 20260506020007 | 63 | 333 | 0.9 | 0.9 | 0.00 | 0.00 | 0.00 | 69 | 1007.1 |
| 20260506015506 | 63 | 269 | 0.9 | 3.5 | 0.00 | 0.00 | 0.00 | 70 | 1007.1 |
| 20260506015008 | 63 | 327 | 0.9 | 2.6 | 0.00 | 0.00 | 0.00 | 71 | 1007.1 |
| 20260506014507 | 63 | 294 | 2.6 | 3.5 | 0.00 | 0.00 | 0.00 | 70 | 1007.1 |
| 20260506014007 | 64 | 59 | 0.0 | 0.9 | 0.00 | 0.00 | 0.00 | 70 | 1006.8 |
| 20260506013505 | 63 | 230 | 0.0 | 2.6 | 0.00 | 0.00 | 0.00 | 69 | 1006.8 |
| 20260506013006 | 63 | 297 | 0.9 | 2.6 | 0.00 | 0.00 | 0.00 | 70 | 1007.1 |
| 20260506012508 | 63 | 211 | 0.0 | 2.6 | 0.00 | 0.00 | 0.00 | 70 | 1006.8 |
| 20260506012007 | 63 | 286 | 0.9 | 1.7 | 0.00 | 0.00 | 0.00 | 70 | 1006.8 |
| 20260506011506 | 63 | 198 | 0.9 | 4.3 | 0.00 | 0.00 | 0.00 | 70 | 1006.8 |
| 20260506011007 | 62 | 257 | 1.7 | 3.5 | 0.00 | 0.00 | 0.00 | 73 | 1006.8 |
| 20260506010507 | 63 | 37 | 0.0 | 2.6 | 0.00 | 0.00 | 0.00 | 71 | 1006.8 |
| 20260506010006 | 62 | 246 | 1.7 | 2.6 | 0.00 | 0.00 | 0.00 | 72 | 1006.8 |
| 20260506005506 | 62 | 356 | 0.9 | 1.7 | 0.00 | 0.00 | 0.00 | 73 | 1006.8 |
| 20260506005008 | 61 | 123 | 0.9 | 2.6 | 0.00 | 0.00 | 0.00 | 74 | 1006.4 |
| 20260506004507 | 60 | 327 | 0.9 | 2.6 | 0.00 | 0.00 | 0.00 | 77 | 1006.4 |
| 20260506004006 | 61 | 54 | 0.9 | 1.7 | 0.00 | 0.00 | 0.00 | 77 | 1006.4 |
| 20260506003507 | 61 | 59 | 1.7 | 1.7 | 0.00 | 0.00 | 0.00 | 76 | 1006.1 |
| 20260506003007 | 61 | 309 | 1.7 | 2.6 | 0.00 | 0.00 | 0.00 | 76 | 1006.1 |
| 20260506002507 | 61 | 296 | 1.7 | 2.6 | 0.00 | 0.00 | 0.00 | 76 | 1006.1 |
| 20260506002008 | 62 | 279 | 0.0 | 1.7 | 0.00 | 0.00 | 0.00 | 75 | 1005.8 |
| 20260506001507 | 62 | 319 | 2.6 | 3.5 | 0.00 | 0.00 | 0.00 | 73 | 1005.8 |
| 20260506001008 | 62 | 189 | 0.9 | 3.5 | 0.00 | 0.00 | 0.00 | 73 | 1005.8 |
| 20260506000508 | 62 | 40 | 1.7 | 1.7 | 0.00 | 0.00 | 0.00 | 75 | 1005.8 |
| 20260506000006 | 62 | 326 | 1.7 | 1.7 | 0.00 | 0.00 | 0.00 | 75 | 1006.1 |
| 20260505235507 | 62 | 334 | 1.7 | 2.6 | 0.00 | 0.00 | 0.00 | 75 | 1005.8 |
| 20260505235009 | 61 | 0 | 1.7 | 2.6 | 0.00 | 0.00 | 0.00 | 78 | 1005.8 |
| 20260505234505 | 62 | 319 | 1.7 | 1.7 | 0.00 | 0.00 | 0.00 | 79 | 1005.8 |
| 20260505234006 | 62 | 31 | 3.5 | 3.5 | 0.00 | 0.00 | 0.00 | 79 | 1005.8 |
| 20260505233506 | 62 | 346 | 0.9 | 1.7 | 0.00 | 0.00 | 0.00 | 80 | 1006.1 |
| 20260505233005 | 62 | 314 | 1.7 | 1.7 | 0.00 | 0.00 | 0.00 | 77 | 1006.4 |
| 20260505232505 | 62 | 323 | 1.7 | 2.6 | 0.00 | 0.00 | 0.00 | 77 | 1006.1 |
| 20260505232006 | 63 | 25 | 0.0 | 1.7 | 0.00 | 0.00 | 0.00 | 75 | 1006.1 |
| 20260505231507 | 63 | 66 | 0.9 | 2.6 | 0.00 | 0.00 | 0.00 | 73 | 1005.8 |
| 20260505231006 | 63 | 31 | 1.7 | 1.7 | 0.00 | 0.00 | 0.00 | 72 | 1005.8 |
| 20260505230508 | 64 | 346 | 1.7 | 1.7 | 0.00 | 0.00 | 0.00 | 73 | 1006.1 |
| 20260505230007 | 64 | 135 | 0.9 | 1.7 | 0.00 | 0.00 | 0.00 | 73 | 1005.8 |
| 20260505225508 | 64 | 187 | 1.7 | 2.6 | 0.00 | 0.00 | 0.00 | 72 | 1006.1 |
| 20260505225007 | 63 | 219 | 2.6 | 3.5 | 0.00 | 0.00 | 0.00 | 73 | 1006.1 |
| 20260505224506 | 63 | 119 | 2.6 | 2.6 | 0.00 | 0.00 | 0.00 | 76 | 1006.4 |
| 20260505224006 | 63 | 159 | 1.7 | 2.6 | 0.00 | 0.00 | 0.00 | 76 | 1006.1 |
| 20260505223508 | 63 | 128 | 0.9 | 2.6 | 0.00 | 0.00 | 0.00 | 80 | 1006.1 |
| 20260505223006 | 63 | 56 | 2.6 | 2.6 | 0.00 | 0.00 | 0.00 | 82 | 1006.1 |
| 20260505222507 | 62 | 8 | 1.7 | 3.5 | 0.00 | 0.00 | 0.00 | 86 | 1006.1 |
| 20260505222007 | 63 | 91 | 0.9 | 1.7 | 0.00 | 0.00 | 0.00 | 87 | 1005.8 |
| 20260505221507 | 63 | 266 | 0.0 | 0.9 | 0.00 | 0.00 | 0.00 | 86 | 1006.1 |
| 20260505221006 | 63 | 52 | 0.9 | 1.7 | 0.00 | 0.00 | 0.00 | 85 | 1006.1 |
| 20260505220505 | 64 | 317 | 2.6 | 2.6 | 0.00 | 0.00 | 0.00 | 87 | 1005.8 |
| 20260505220007 | 63 | 49 | 1.7 | 2.6 | 0.00 | 0.00 | 0.00 | 87 | 1005.4 |
| 20260505215513 | 64 | 59 | 2.6 | 4.3 | 0.00 | 0.00 | 0.00 | 87 | 1005.4 |
| 20260505215007 | 64 | 44 | 2.6 | 3.5 | 0.00 | 0.00 | 0.00 | 88 | 1005.8 |
| 20260505214507 | 64 | 62 | 2.6 | 2.6 | 0.00 | 0.00 | 0.00 | 87 | 1005.8 |
| 20260505214008 | 64 | 200 | 1.7 | 2.6 | 0.00 | 0.00 | 0.00 | 86 | 1005.8 |
| 20260505213508 | 63 | 26 | 1.7 | 1.7 | 0.00 | 0.00 | 0.00 | 86 | 1005.4 |
| 20260505213007 | 64 | 34 | 1.7 | 3.5 | 0.00 | 0.00 | 0.00 | 85 | 1005.4 |
| 20260505212508 | 64 | 28 | 1.7 | 2.6 | 0.00 | 0.00 | 0.00 | 82 | 1005.1 |
| 20260505211518 | 64 | 320 | 2.6 | 2.6 | 0.00 | 0.00 | 0.00 | 82 | 1005.1 |
| 20260505211006 | 65 | 41 | 0.9 | 1.7 | 0.00 | 0.00 | 0.00 | 82 | 1004.4 |
| 20260505210507 | 65 | 28 | 1.7 | 1.7 | 0.00 | 0.00 | 0.00 | 81 | 1004.1 |
| 20260505210007 | 65 | 23 | 1.7 | 2.6 | 0.00 | 0.00 | 0.00 | 83 | 1004.1 |
| 20260505205507 | 65 | 45 | 2.6 | 2.6 | 0.00 | 0.00 | 0.00 | 83 | 1003.7 |
| 20260505205008 | 64 | 10 | 1.7 | 2.6 | 0.00 | 0.00 | 0.00 | 80 | 1003.7 |
| 20260505204508 | 64 | 22 | 3.5 | 3.5 | 0.00 | 0.00 | 0.00 | 84 | 1004.1 |
| 20260505204008 | 62 | 103 | 0.0 | 2.6 | 0.00 | 0.00 | 0.00 | 88 | 1004.1 |
| 20260505203507 | 62 | 52 | 2.6 | 3.5 | 0.00 | 0.00 | 0.00 | 87 | 1004.1 |
| 20260505203007 | 61 | 51 | 3.5 | 3.5 | 0.00 | 0.00 | 0.00 | 87 | 1004.1 |
| 20260505202510 | 62 | 50 | 3.5 | 4.3 | 0.00 | 0.00 | 0.00 | 85 | 1003.7 |